Location: Gosfield
(51.9333°N, 0.5833°E)
Time: 13:35:15
(UTC+00:00)

SL-4 R/B - Visible Passes

Search period start: 14 February 2026 00:00
Search period end: 24 February 2026 00:00
Orbit: 383 x 518 km, 51.6° (Epoch: 13 February)

Date Brightness Start Highest point End Pass type
(mag) Time Alt. Az. Time Alt. Az. Time Alt. Az.
14 Feb 3.3 04:54:22 24° SSE 04:54:22 24° SSE 04:56:18 10° SE visible
15 Feb 4.5 04:18:42 12° SE 04:18:42 12° SE 04:18:59 10° SE visible
15 Feb 4.0 05:52:20 11° SW 05:52:24 11° SW 05:53:18 10° SSW visible
16 Feb 4.2 05:16:46 10° SSW 05:16:46 10° SSW 05:16:52 10° S visible
